Content
SEND FEEDBACK

Daily
Averages
Monthly
Summary
United States of America

RAPID CITY, SOUTH DAKOTA


Home > North America > United States > South Dakota
Elevation: 3162 feet     Latitude: 44 03N     Longitude: 103 04W

WEATHER
 
SELECT A DAY
Number of Records: 202,665;   Date Range: 1/1/95 - 9/28/14
 
SHARE

PRINT THIS DATA

[ ← Previous Day ]
WEATHER ALMANAC - JANUARY 16, 2013
[ Next Day → ]
[ °C ]   °F
Weather ElementAverageHighLow
Temperature39 °F46.9 °F (12:52 pm)30 °F (7:52 pm)
Dewpoint22.8 °F28 °F (1:52 am)19.9 °F (9:52 am)
Humidity53.3 %69 % (7:52 pm)37 % (9:52 am)
Barometer30.12 in30.30 in (11:52 pm)29.98 in (1:52 am)
Wind Speed13.1 mph28.8 mph (11:52 am)
Wind Gust40.3 mph (9:52 am)
Weather ElementAverage
Visibility10 mi
Wind DirectionWNW (297.8 °)

Weather ElementTotal
Precipitation---
Heating Degree Days26.6 (Base 65)
Averaged from 23 records on January 16, 2013
WEATHER CONDITIONS BREAKOUT
WIND DIRECTION BREAKOUT
WEATHER BY HOUR - JANUARY 16, 2013
[ °C ]   °F
Local TimeTemperatureDewpointHumidityBarometerVisibilityWind DirectionWind SpeedGust SpeedPrecipitationEventsConditions
1:52 AM41.0 °F28.0 °F60 %29.98 in10.0 miNW (320°)16.1 mphClear
2:52 AM41.0 °F26.1 °F55 %30.00 in10.0 miWNW (300°)15.0 mphPartly Cloudy
3:52 AM37.0 °F26.1 °F65 %30.01 in10.0 miWSW (240°)4.6 mphOvercast
4:52 AM35.1 °F24.1 °F64 %30.00 in10.0 miWest (280°)3.5 mphOvercast
5:52 AM35.1 °F23.0 °F61 %30.00 in10.0 miWSW (240°)6.9 mphOvercast
6:52 AM37.0 °F21.0 °F52 %30.02 in10.0 miWNW (290°)12.7 mphPartly Cloudy
7:52 AM39.0 °F23.0 °F53 %30.02 in10.0 miWNW (300°)10.4 mphOvercast
8:52 AM39.9 °F23.0 °F51 %30.03 in10.0 miWNW (290°)13.8 mphOvercast
9:52 AM45.0 °F19.9 °F37 %30.05 in10.0 miNW (320°)27.6 mph40.3 mphMostly Cloudy
10:52 AM45.0 °F21.0 °F39 %30.06 in10.0 miNW (320°)24.2 mph36.8 mphOvercast
11:52 AM46.0 °F21.9 °F39 %30.06 in10.0 miNNW (330°)28.8 mph38.0 mphScattered Clouds
12:52 PM46.9 °F23.0 °F39 %30.07 in10.0 miNW (320°)21.9 mph31.1 mphClear
1:52 PM46.0 °F23.0 °F40 %30.10 in10.0 miNNW (340°)19.6 mph28.8 mphMostly Cloudy
2:52 PM43.0 °F23.0 °F45 %30.14 in10.0 miNorth (350°)16.1 mphPartly Cloudy
3:52 PM42.1 °F24.1 °F49 %30.16 in10.0 miNNW (340°)9.2 mphScattered Clouds
4:52 PM37.9 °F24.1 °F57 %30.21 in10.0 miNorth (360°)9.2 mphOvercast
5:52 PM37.9 °F23.0 °F55 %30.23 in10.0 miNNW (340°)9.2 mphOvercast
6:52 PM35.1 °F21.9 °F59 %30.25 in10.0 miCalmMostly Cloudy
7:52 PM30.0 °F21.0 °F69 %30.27 in10.0 miNorth (350°)5.8 mphClear
8:52 PM30.9 °F21.0 °F67 %30.28 in10.0 miNW (320°)11.5 mphClear
9:52 PM36.0 °F21.9 °F57 %30.27 in10.0 miWNW (300°)12.7 mphClear
10:52 PM37.0 °F21.0 °F52 %30.28 in10.0 miWNW (290°)11.5 mphClear
11:52 PM32.0 °F19.9 °F61 %30.30 in10.0 miNW (310°)10.4 mphClear
Hourly data recorded from KRAP, located miles away from Rapid City, South Dakota







STORIES FROM OUR PARTNERS